Regional Weather Roundup
Issued by NWS Wakefield, VA

Home | Current Version | Previous Version | Graphics & Text | Print | Product List | Glossary On
Versions: 1 2 3 4 5 6 7 8 9 10 11 12 13 14 15 16 17 18 19 20 21 22 23 24 25 26 27
000
ASUS41 KAKQ 280415
RWRAKQ

REGIONAL WEATHER ROUNDUP
NATIONAL WEATHER SERVICE WAKEFIELD VA
1200 AM EDT WED SEP 28 2016

Note: "fair" indicates few or no clouds below 12,000 feet with no
significant weather and/or obstructions to visibility. * = Denotes
station may not report precipitation (e.g., rain,snow,etc.),
thunder or fog.

VAZ042-051-052>054-056-280500-
NORTHERN VIRGINIA

CITY           SKY/WX    TMP DP  RH WIND       PRES   REMARKS
WASH NATIONAL  PTCLDY    66  64  93 CALM      29.95S
DULLES         PTCLDY    60  58  92 CALM      29.96R
FORT BELVOIR   CLEAR     59  59 100 CALM      29.95R
QUANTICO       MOCLDY    64  62  93 NW5       29.96R
FREDERICKSBRG* CLOUDY    67  67 100 CALM      29.93S
STAFFORD*      CLOUDY    60  60 100 CALM      29.98R
WARRENTON      PTCLDY    58  54  85 CALM      29.94S FOG
CULPEPER*      CLOUDY    61  60  99 CALM      29.96S
MANASSAS*      CLEAR     57  55  94 CALM      29.95S
LEESBURG*      CLEAR     61  59  94 CALM      29.96S
WINCHESTER     CLEAR     59  55  88 CALM      29.95R
FRONT ROYAL*   FAIR      59  57  94 CALM      29.93S
LURAY*         FAIR     N/A N/A N/A CALM      29.94S
$$

VAZ048-049-060>072-079>083-280500-
CENTRAL AND SOUTH CENTRAL VIRGINIA

CITY           SKY/WX    TMP DP  RH WIND       PRES   REMARKS
RICHMOND       CLOUDY    67  67 100 E3        29.92S FOG
CHESTERFIELD*  CLOUDY    70  55  60 CALM      29.94R VSB 1/4
PETERSBURG*    FOG      N/A N/A N/A CALM      29.92F VSB 1/2
HANOVER        FOG       68  66  93 CALM      29.94S VSB 1/2
TAPPAHANNOCK*  PTCLDY    66  66 100 CALM      29.94S FOG
QUINTON*       FOG       67  67 100 CALM      29.91F VSB 1/4
CHARLOTTSVILLE CLOUDY    68  64  87 NE3       29.93S
GORDONSVILLE*  NOT AVBL
ORANGE*          N/A     64  64 100 CALM      29.95F
LOUISA*        CLOUDY    70  70 100 CALM      29.93S FOG
BUMPASS*       CLOUDY    66  66 100 E3        29.94R
FARMVILLE*     CLOUDY    70  70  99 S3        29.91S FOG
CREWE*         CLOUDY    66  66 100 CALM      29.92S VSB 1/2
FORT PICKETT*  MOCLDY    67  64  87 S6        29.92S
CHASE CITY*    MOCLDY    69  68  94 SE5       29.91S
CLARKSVILLE*   FAIR      68  68 100 CALM      29.90F
SOUTH HILL*    CLOUDY    68  68 100 CALM      29.97S
LAWRENCEVILLE* FAIR      68  67  97 CALM      29.92R
EMPORIA*         N/A     66  66 100 CALM      29.93S
$$

VAZ088>098-280500-
SOUTHEAST VIRGINIA

CITY           SKY/WX    TMP DP  RH WIND       PRES   REMARKS
NORFOLK        PTCLDY    70  68  93 S5        29.92R
VIRGINIA BEACH PTCLDY    69  67  93 CALM      29.92R
NORFOLK NAVAL  CLEAR     71  68  90 CALM      29.93S
WEST POINT*    PTCLDY    66  66  99 CALM      29.93S
SALUDA*        MOCLDY    67  67 100 CALM      29.92F
NEWPORT NEWS   FOG       67  66  97 CALM      29.93R VSB 1/4
LANGLEY AFB    PTCLDY    68  66  94 SE1       29.92R
FORT EUSTIS    CLOUDY    69  67  95 SE3       29.90R
WILLIAMSBURG*  CLOUDY    70  70 100 CALM      29.93S
HR EXEC AP*    FAIR      64  61  88 CALM      29.94S
FRANKLIN*      PTCLDY    67  67  97 SE3       29.92S
US460-WAKEFLD  FOG       66  65  96 CALM      29.92S VSB 1/4
$$

VAZ020-022-025-037-045-280500-
WEST CENTRAL AND SOUTHWEST VIRGINIA

CITY           SKY/WX    TMP DP  RH WIND       PRES   REMARKS
STAUNTON*      MOCLDY    59  54  84 CALM      29.96S
WAYNESBORO*    CLOUDY    64  63  96 CALM      29.95S
HOT SPRINGS VA CLEAR     55  34  45 W6        30.02S
LYNCHBURG      CLOUDY    67  64  90 S6        29.94R
DANVILLE       LGT RAIN  68  66  93 CALM      29.93R
SOUTH BOSTON*  CLOUDY    69  68  95 SE6       29.91S
MARTINSVILLE   CLOUDY    64  63  97 CALM      29.95R FOG
ROANOKE        CLOUDY    67  63  87 CALM      29.95R
BLACKSBURG     CLEAR     55  54  97 CALM      30.00S
DUBLIN*        CLEAR     58  57  98 CALM      29.99S
MARION*        FOG       57  56  96 CALM      30.02S VSB 1/4
HILLSVILLE*    CLEAR     62  61  95 CALM      29.98S
RICHLANDS*     FAIR      58  51  78 S3        30.00S
WISE*          PTCLDY    55  34  44 CALM      30.01S
ABINGDON*      CLEAR     59  59  99 CALM      29.98S FOG
$$

MDZ021>025-VAZ099-100-280500-
SOUTHERN MARYLAND AND THE DELMARVA PENINSULA

CITY           SKY/WX    TMP DP  RH WIND       PRES   REMARKS
PATUXENT RIVER CLOUDY    69  66  90 E5        29.94S
BAY BRIDGE APT CLOUDY    63  61  94 MISG      29.95S FOG
LEONARDTOWN    MOCLDY    63  61  94 CALM      29.95F
DOVER          PTCLDY    59  59 100 NW3       29.95S
GEORGETOWN     CLOUDY    63  63 100 CALM      29.96R
EASTON         NOT AVBL
CAMBRIDGE      CLOUDY    61  61 100 CALM      29.94S VSB 1/4
SALISBURY      CLOUDY    66  65  96 CALM      29.95R
OCEAN CITY     CLOUDY    69  66  90 N5        29.95R
WALLOPS ISLAND MOCLDY    69  69 100 N3        29.94S
ACCOMACK*      CLOUDY    69  67  92 CALM      29.94R FOG
$$

NCZ012>017-030>032-280500-
NORTH CENTRAL AND EASTERN NORTH CAROLINA

CITY           SKY/WX    TMP DP  RH WIND       PRES   REMARKS
ROANOKE RAPIDS FOG       66  66 100 CALM      29.92S VSB 1/2
RALEIGH        CLOUDY    73  70  90 S3        29.92R
ELIZABETH CITY PTCLDY    69  67  93 CALM      29.92S
AHOSKIE*       CLOUDY    67  67  98 CALM      29.92S
EDENTON*       FOG       70  70 100 CALM      29.93S VSB 3/4
CURRITUCK*     NOT AVBL
KILL DEVIL HLS PTCLDY    73  73  98 CALM      29.91R
MANTEO         PTCLDY    73  71  95 E5        29.92R
CAPE HATTERAS  CLEAR     73  71  93 N5        29.89S
TARBORO*       MOCLDY    68  68  99 CALM      29.94R FOG
GOLDSBORO      PTCLDY    70  70 100 S3        29.90S
WASHINGTON     PTCLDY    68  68  99 CALM      29.92F
GREENVILLE     MOCLDY    70  70 100 CALM      29.94F
NEW BERN       PTCLDY    69  68  96 CALM      29.93R
WILMINGTON     PTCLDY    71  69  93 CALM      29.92R
$$

VAZ048-280500-
ELSEWHERE

CITY           SKY/WX    TMP DP  RH WIND       PRES   REMARKS
HARRISBURG PA  CLEAR     58  53  84 CALM      29.96R
BALTIMORE      PTCLDY    58  57  97 CALM      29.95S
ANNAPOLIS      CLEAR     64  62  93 CALM      29.95S
ANDREWS AFB    CLEAR     58  57  94 E1        29.94S
PHILADELPHIA   PTCLDY    62  57  83 CALM      29.97S
HENDERSON NC   MOCLDY    67  66  96 S6        29.92F FOG
GREENSBORO     MOCLDY    70  69  97 S9        29.91R
ROCKY MOUNT    PTCLDY    69  69 100 CALM      29.91F FOG
$$

VAZ100-280500-
MARINE

STATION/POSITION TIME  TEMP    WIND        PRES    WAVE   SWELL
                       AIR SEA DIR/SP/G            HT/PER HT/PER
                 (UTC) (F)     (DEG/KT/KT) (MB)    (FT/S) (FT/S)
BRANDYWINE LGT   0342   69     130/  3/  4   N/A
CAPE MAY NJ      0342   67 72   90/  3/  4 1013.8R
LEWES DE         0342   69 72  110/  2/  2 1014.0R
OCEAN-CITY-INLET 0348           10/  5/  5   N/A
WACHAPREAGUE VA  0348   69 74   CALM  /  1 1013.8R
THOMAS POINT MD  0400   68 74  360/  4/  5 1015.6R
GOOSES REEF MD   0400   69 74  130/  6/  8 1014.4
COVE POINT MD    0342   68     110/  5/  6 1014.3F
SOLOMONS ISLAND  0348           90/  5/  6   N/A
BISHOPS HEAD MD  0342   68 71   40/  4/  6 1014.2R
PINEY POINT MD   0348           90/  4/  5   N/A
POTOMAC MD       0400   72 74   60/  6/  8 1012.6    0
CAMBRIDGE MD     0342   65 74  100/  5/  7 1013.3R
LEWISETTA VA     0348   69 74   CALM  /  1 1013.2S
RAPPAHANNOCK LGT 0348          110/  3/  4 1014.1R
STINGRAY PT      0400   74 75   90/  6/  8 1013.7    0
YORK RVR RNG VA  0348   74     180/  4/  5 1012.9R
YORKTOWN VA      0348   71 76  100/  2/  2 1012.9R
JAMESTOWN VA     0400   71 76  110/  2/  4   N/A     0
DOMINION TERM VA 0348   72     190/  7/  8 1013.2R
KIPTOPEKE VA     0348      75  210/  6/  7   N/A
CHES BAY BRIDGE  0348   73 76  160/  6/  8 1012.9R
CAPE HENRY VA    0348   71     190/  5/  6   N/A
WILLOUBY STN VA  0348   72     360/  3/  4   N/A
CAPE HENRY BUOY  0342      75                N/A     3/13   2/13
1ST LANDING BUOY 0400   73 75  190/  6/  6 1013.1    1/ 5
CAPE CHARLES BUO 0356      76                N/A     2/13   2/13
OFFSHORE WE BUOY 0351      75                N/A     3/12   2/12
64NM E OF VA BCH 0350   74 74  130/  6/  8 1013.2R   4/11   3/11
DUCK PIER NC     0348   75 76  100/  8/ 10 1012.5R
44056 DUCK FRF   0341      76                N/A     3/11   2/11
OREGON INLET NC  0348   75 77   70/  6/ 10 1012.5S
HATTERAS NC      0348   75 77   20/  7/ 10 1011.9R
DIAMOND SHLS NC  0350   77 84  360/ 12/ 16 1011.6F   5/ 7   3/ 7
CAPE LOOKOUT NC  0400   75     360/  5/  5 1012.1R
$$




USA.gov is the U.S. government's official web portal to all federal, state and local government web resources and services.